User: anonymous   Login
Location: Unspecified
(0.0000°N, 0.0000°E)
Time: 03:13:19
(UTC+00:00)
Language:

Saudisat 1A - Orbit

View from above orbital plane
View from above orbital plane
View from above satellite
View from above satellite

Ground track
Ground track

The orbit data is extracted from the following two-line orbital elements,

1 26546U 00057B   18202.33139838 +.00000044 +00000-0 +20478-4 0  9999
2 26546 064.5537 165.7910 0017201 321.6403 038.3482 14.90749646966137
Epoch (UTC): 21 July 2018 07:57:12
Eccentricity: 0.0017201
inclination: 64.5537°
perigee height: 583 km
apogee height: 607 km
right ascension of ascending node: 165.7910°
argument of perigee: 321.6403°
revolutions per day: 14.90749646
mean anomaly at epoch: 38.3482°
orbit number at epoch: 96613

The dashed part of the orbit path shows where the satellite is in the earth's shadow,  

DLR